Location: Pella
(41.4080°N, 92.9160°W)
Time: 02:51:07
(UTC-05:00)

Iridium 91 - Visible Passes

Search period start: 04 September 2015 00:00
Search period end: 14 September 2015 00:00
Orbit: 776 x 779 km, 86.4° (Epoch: 02 September)

Date Brightness Start Highest point End Pass type
(mag) Time Alt. Az. Time Alt. Az. Time Alt. Az.
04 Sep 7.0 02:59:40 10° N 03:02:47 34° NNE 03:02:47 34° NNE visible
04 Sep 7.5 04:41:45 10° NW 04:43:14 14° NW 04:43:14 14° NW visible
05 Sep 7.6 02:26:33 10° NNE 02:29:00 23° NE 02:29:00 23° NE visible
05 Sep 7.2 04:07:16 10° NNW 04:09:26 21° NW 04:09:26 21° NW visible
06 Sep 8.2 01:53:56 10° NE 01:55:14 14° NE 01:55:14 14° NE visible
06 Sep 7.1 03:33:20 10° NNW 03:35:41 26° NNW 03:35:41 26° NNW visible
07 Sep 7.4 02:59:41 10° N 03:01:56 26° N 03:01:56 26° N visible
08 Sep 7.8 02:26:21 10° N 02:28:12 21° NNE 02:28:12 21° NNE visible
08 Sep 7.7 04:07:51 10° NNW 04:08:39 13° NW 04:08:39 13° NW visible
09 Sep 8.2 01:53:23 10° NNE 01:54:28 15° NNE 01:54:28 15° NNE visible
09 Sep 7.7 03:33:37 10° NNW 03:34:55 17° NNW 03:34:55 17° NNW visible
10 Sep 7.7 02:59:48 10° N 03:01:13 19° N 03:01:13 19° N visible
11 Sep 8.0 02:26:18 10° N 02:27:31 17° N 02:27:31 17° N visible
12 Sep 8.3 01:53:05 10° NNE 01:53:50 14° NNE 01:53:50 14° NNE visible
12 Sep 8.1 03:34:03 10° NNW 03:34:16 11° NNW 03:34:16 11° NNW visible
13 Sep 8.1 03:00:01 10° NNW 03:00:36 13° NNW 03:00:36 13° NNW visible
